Location: Unspecified
(0.0000°N, 0.0000°E)
Time: 05:50:48
(UTC+00:00)

X-37B - Visible Passes

Search period start: 27 May 2022 00:00
Search period end: 06 June 2022 00:00
Orbit: 329 x 342 km, 45.0° (Epoch: 18 May)

Date Brightness Start Highest point End Pass type
(mag) Time Alt. Az. Time Alt. Az. Time Alt. Az.
27 May 3.5 19:46:03 10° NNW 19:46:24 13° NNW 19:46:24 13° NNW visible
29 May 0.7 18:51:29 10° NNW 18:54:11 46° NE 18:55:13 29° ESE visible
30 May 2.2 19:12:14 10° WNW 19:14:34 23° SW 19:15:19 20° SSW visible
01 Jun 2.7 05:19:58 10° S 05:22:09 19° SE 05:24:20 10° E visible
03 Jun 2.6 04:27:28 19° SE 04:27:35 19° SE 04:29:44 10° E visible
04 Jun 0.3 04:47:32 54° W 04:47:57 64° NW 04:50:46 10° NE visible
05 Jun 2.7 05:07:34 11° WNW 05:08:20 12° NW 05:09:27 10° NNW visible
